Location: Cahas Mountain Overlook
(37.0833°N, 80.1000°W)
Time: 19:17:07
(UTC-04:00)

Tiros 1 - Pass Details

Date: 08 February 2026
Orbit: 618 x 649 km, 48.4° (Epoch: 13 March)

Event Time Altitude Azimuth Distance (km) Brightness Sun altitude
Rises 18:10:28 0° 306° (NW) 2,887 11.1 -4.2°
Reaches altitude 10° 18:12:47 10° 308° (NW) 1,982 10.2 -4.6°
Maximum altitude 18:17:20 72° 33° (NNE) 652 7.1 -5.5°
Drops below altitude 10° 18:21:54 10° 118° (ESE) 1,989 9.2 -6.4°
Sets 18:24:14 0° 121° (ESE) 2,898 10.1 -6.8°
